Index of /20260504/WXO-DD/model_gdps/15km/12/099
Name Last modified Size Description
Parent Directory -
20260504T12Z_MSC_GDPS_AbsoluteVorticity_IsbL-0200_LatLon0.15_PT099H.grib2 2026-05-04 16:44 1.2M
20260504T12Z_MSC_GDPS_AbsoluteVorticity_IsbL-0250_LatLon0.15_PT099H.grib2 2026-05-04 16:44 1.3M
20260504T12Z_MSC_GDPS_AbsoluteVorticity_IsbL-0500_LatLon0.15_PT099H.grib2 2026-05-04 16:44 1.2M
20260504T12Z_MSC_GDPS_AbsoluteVorticity_IsbL-0700_LatLon0.15_PT099H.grib2 2026-05-04 16:44 1.3M
20260504T12Z_MSC_GDPS_AbsoluteVorticity_IsbL-0850_LatLon0.15_PT099H.grib2 2026-05-04 16:44 1.6M
20260504T12Z_MSC_GDPS_AirTemp_AGL-120m_LatLon0.15_PT099H.grib2 2026-05-04 16:44 913K
20260504T12Z_MSC_GDPS_AirTemp_AGL-2m_LatLon0.15_PT099H.grib2 2026-05-04 16:44 1.0M
20260504T12Z_MSC_GDPS_AirTemp_AGL-40m_LatLon0.15_PT099H.grib2 2026-05-04 16:44 815K
20260504T12Z_MSC_GDPS_AirTemp_AGL-80m_LatLon0.15_PT099H.grib2 2026-05-04 16:44 804K
20260504T12Z_MSC_GDPS_AirTemp_IsbL-0001_LatLon0.15_PT099H.grib2 2026-05-04 16:44 668K
20260504T12Z_MSC_GDPS_AirTemp_IsbL-0005_LatLon0.15_PT099H.grib2 2026-05-04 16:44 703K
20260504T12Z_MSC_GDPS_AirTemp_IsbL-0010_LatLon0.15_PT099H.grib2 2026-05-04 16:44 704K
20260504T12Z_MSC_GDPS_AirTemp_IsbL-0020_LatLon0.15_PT099H.grib2 2026-05-04 16:44 789K
20260504T12Z_MSC_GDPS_AirTemp_IsbL-0030_LatLon0.15_PT099H.grib2 2026-05-04 16:44 839K
20260504T12Z_MSC_GDPS_AirTemp_IsbL-0050_LatLon0.15_PT099H.grib2 2026-05-04 16:44 804K
20260504T12Z_MSC_GDPS_AirTemp_IsbL-0100_LatLon0.15_PT099H.grib2 2026-05-04 16:44 964K
20260504T12Z_MSC_GDPS_AirTemp_IsbL-0150_LatLon0.15_PT099H.grib2 2026-05-04 16:44 1.0M
20260504T12Z_MSC_GDPS_AirTemp_IsbL-0175_LatLon0.15_PT099H.grib2 2026-05-04 16:44 1.0M
20260504T12Z_MSC_GDPS_AirTemp_IsbL-0200_LatLon0.15_PT099H.grib2 2026-05-04 16:44 1.0M
20260504T12Z_MSC_GDPS_AirTemp_IsbL-0225_LatLon0.15_PT099H.grib2 2026-05-04 16:44 968K
20260504T12Z_MSC_GDPS_AirTemp_IsbL-0250_LatLon0.15_PT099H.grib2 2026-05-04 16:44 1.0M
20260504T12Z_MSC_GDPS_AirTemp_IsbL-0275_LatLon0.15_PT099H.grib2 2026-05-04 16:44 1.0M
20260504T12Z_MSC_GDPS_AirTemp_IsbL-0300_LatLon0.15_PT099H.grib2 2026-05-04 16:44 1.0M
20260504T12Z_MSC_GDPS_AirTemp_IsbL-0350_LatLon0.15_PT099H.grib2 2026-05-04 16:44 929K
20260504T12Z_MSC_GDPS_AirTemp_IsbL-0400_LatLon0.15_PT099H.grib2 2026-05-04 16:44 943K
20260504T12Z_MSC_GDPS_AirTemp_IsbL-0450_LatLon0.15_PT099H.grib2 2026-05-04 16:44 966K
20260504T12Z_MSC_GDPS_AirTemp_IsbL-0500_LatLon0.15_PT099H.grib2 2026-05-04 16:44 1.0M
20260504T12Z_MSC_GDPS_AirTemp_IsbL-0550_LatLon0.15_PT099H.grib2 2026-05-04 16:44 803K
20260504T12Z_MSC_GDPS_AirTemp_IsbL-0600_LatLon0.15_PT099H.grib2 2026-05-04 16:44 896K
20260504T12Z_MSC_GDPS_AirTemp_IsbL-0650_LatLon0.15_PT099H.grib2 2026-05-04 16:44 925K
20260504T12Z_MSC_GDPS_AirTemp_IsbL-0700_LatLon0.15_PT099H.grib2 2026-05-04 16:44 961K
20260504T12Z_MSC_GDPS_AirTemp_IsbL-0750_LatLon0.15_PT099H.grib2 2026-05-04 16:44 1.0M
20260504T12Z_MSC_GDPS_AirTemp_IsbL-0800_LatLon0.15_PT099H.grib2 2026-05-04 16:44 1.1M
20260504T12Z_MSC_GDPS_AirTemp_IsbL-0850_LatLon0.15_PT099H.grib2 2026-05-04 16:44 1.1M
20260504T12Z_MSC_GDPS_AirTemp_IsbL-0875_LatLon0.15_PT099H.grib2 2026-05-04 16:44 1.2M
20260504T12Z_MSC_GDPS_AirTemp_IsbL-0900_LatLon0.15_PT099H.grib2 2026-05-04 16:44 1.2M
20260504T12Z_MSC_GDPS_AirTemp_IsbL-0925_LatLon0.15_PT099H.grib2 2026-05-04 16:44 1.1M
20260504T12Z_MSC_GDPS_AirTemp_IsbL-0950_LatLon0.15_PT099H.grib2 2026-05-04 16:44 1.1M
20260504T12Z_MSC_GDPS_AirTemp_IsbL-0970_LatLon0.15_PT099H.grib2 2026-05-04 16:44 1.2M
20260504T12Z_MSC_GDPS_AirTemp_IsbL-0985_LatLon0.15_PT099H.grib2 2026-05-04 16:44 1.1M
20260504T12Z_MSC_GDPS_AirTemp_IsbL-1000_LatLon0.15_PT099H.grib2 2026-05-04 16:44 1.1M
20260504T12Z_MSC_GDPS_AirTemp_IsbL-1015_LatLon0.15_PT099H.grib2 2026-05-04 16:44 1.1M
20260504T12Z_MSC_GDPS_Albedo_Sfc_LatLon0.15_PT099H.grib2 2026-05-04 16:44 242K
20260504T12Z_MSC_GDPS_CAPE_Sfc_LatLon0.15_PT099H.grib2 2026-05-04 16:44 4.0M
20260504T12Z_MSC_GDPS_CIN_Sfc_LatLon0.15_PT099H.grib2 2026-05-04 16:44 2.9M
20260504T12Z_MSC_GDPS_CloudWater_EAtm_LatLon0.15_PT099H.grib2 2026-05-04 16:44 545K
20260504T12Z_MSC_GDPS_ConvectivePrecip-Accum_Sfc_LatLon0.15_PT099H.grib2 2026-05-04 16:44 3.3M
20260504T12Z_MSC_GDPS_DewPointDepression_AGL-2m_LatLon0.15_PT099H.grib2 2026-05-04 16:44 768K
20260504T12Z_MSC_GDPS_DewPointDepression_IsbL-0010_LatLon0.15_PT099H.grib2 2026-05-04 16:44 87K
20260504T12Z_MSC_GDPS_DewPointDepression_IsbL-0020_LatLon0.15_PT099H.grib2 2026-05-04 16:44 80K
20260504T12Z_MSC_GDPS_DewPointDepression_IsbL-0030_LatLon0.15_PT099H.grib2 2026-05-04 16:44 90K
20260504T12Z_MSC_GDPS_DewPointDepression_IsbL-0050_LatLon0.15_PT099H.grib2 2026-05-04 16:44 382K
20260504T12Z_MSC_GDPS_DewPointDepression_IsbL-0100_LatLon0.15_PT099H.grib2 2026-05-04 16:44 402K
20260504T12Z_MSC_GDPS_DewPointDepression_IsbL-0150_LatLon0.15_PT099H.grib2 2026-05-04 16:44 494K
20260504T12Z_MSC_GDPS_DewPointDepression_IsbL-0175_LatLon0.15_PT099H.grib2 2026-05-04 16:44 592K
20260504T12Z_MSC_GDPS_DewPointDepression_IsbL-0200_LatLon0.15_PT099H.grib2 2026-05-04 16:44 699K
20260504T12Z_MSC_GDPS_DewPointDepression_IsbL-0225_LatLon0.15_PT099H.grib2 2026-05-04 16:44 779K
20260504T12Z_MSC_GDPS_DewPointDepression_IsbL-0250_LatLon0.15_PT099H.grib2 2026-05-04 16:44 876K
20260504T12Z_MSC_GDPS_DewPointDepression_IsbL-0275_LatLon0.15_PT099H.grib2 2026-05-04 16:44 894K
20260504T12Z_MSC_GDPS_DewPointDepression_IsbL-0300_LatLon0.15_PT099H.grib2 2026-05-04 16:44 939K
20260504T12Z_MSC_GDPS_DewPointDepression_IsbL-0350_LatLon0.15_PT099H.grib2 2026-05-04 16:44 963K
20260504T12Z_MSC_GDPS_DewPointDepression_IsbL-0400_LatLon0.15_PT099H.grib2 2026-05-04 16:44 1.0M
20260504T12Z_MSC_GDPS_DewPointDepression_IsbL-0450_LatLon0.15_PT099H.grib2 2026-05-04 16:44 1.0M
20260504T12Z_MSC_GDPS_DewPointDepression_IsbL-0500_LatLon0.15_PT099H.grib2 2026-05-04 16:44 1.0M
20260504T12Z_MSC_GDPS_DewPointDepression_IsbL-0550_LatLon0.15_PT099H.grib2 2026-05-04 16:44 1.0M
20260504T12Z_MSC_GDPS_DewPointDepression_IsbL-0600_LatLon0.15_PT099H.grib2 2026-05-04 16:44 1.0M
20260504T12Z_MSC_GDPS_DewPointDepression_IsbL-0650_LatLon0.15_PT099H.grib2 2026-05-04 16:44 1.1M
20260504T12Z_MSC_GDPS_DewPointDepression_IsbL-0700_LatLon0.15_PT099H.grib2 2026-05-04 16:44 1.1M
20260504T12Z_MSC_GDPS_DewPointDepression_IsbL-0750_LatLon0.15_PT099H.grib2 2026-05-04 16:44 1.1M
20260504T12Z_MSC_GDPS_DewPointDepression_IsbL-0800_LatLon0.15_PT099H.grib2 2026-05-04 16:44 1.2M
20260504T12Z_MSC_GDPS_DewPointDepression_IsbL-0850_LatLon0.15_PT099H.grib2 2026-05-04 16:44 1.2M
20260504T12Z_MSC_GDPS_DewPointDepression_IsbL-0875_LatLon0.15_PT099H.grib2 2026-05-04 16:44 1.1M
20260504T12Z_MSC_GDPS_DewPointDepression_IsbL-0900_LatLon0.15_PT099H.grib2 2026-05-04 16:44 1.1M
20260504T12Z_MSC_GDPS_DewPointDepression_IsbL-0925_LatLon0.15_PT099H.grib2 2026-05-04 16:44 1.0M
20260504T12Z_MSC_GDPS_DewPointDepression_IsbL-0950_LatLon0.15_PT099H.grib2 2026-05-04 16:44 1.0M
20260504T12Z_MSC_GDPS_DewPointDepression_IsbL-0970_LatLon0.15_PT099H.grib2 2026-05-04 16:44 1.0M
20260504T12Z_MSC_GDPS_DewPointDepression_IsbL-0985_LatLon0.15_PT099H.grib2 2026-05-04 16:44 1.0M
20260504T12Z_MSC_GDPS_DewPointDepression_IsbL-1000_LatLon0.15_PT099H.grib2 2026-05-04 16:44 1.0M
20260504T12Z_MSC_GDPS_DewPointDepression_IsbL-1015_LatLon0.15_PT099H.grib2 2026-05-04 16:44 925K
20260504T12Z_MSC_GDPS_DewPoint_AGL-2m_LatLon0.15_PT099H.grib2 2026-05-04 16:44 620K
20260504T12Z_MSC_GDPS_DownwardLongwaveRadiationFlux-Accum_Sfc_LatLon0.15_PT099H.grib2 2026-05-04 16:44 767K
20260504T12Z_MSC_GDPS_DownwardShortwaveRadiationFlux-Accum_NTAtm_LatLon0.15_PT099H.grib2 2026-05-04 16:44 244K
20260504T12Z_MSC_GDPS_DownwardShortwaveRadiationFlux-Accum_Sfc_LatLon0.15_PT099H.grib2 2026-05-04 16:44 946K
20260504T12Z_MSC_GDPS_FreezingRain-Accum1h_Sfc_LatLon0.15_PT099H.grib2 2026-05-04 16:44 46K
20260504T12Z_MSC_GDPS_FreezingRain-Accum3h_Sfc_LatLon0.15_PT099H.grib2 2026-05-04 16:44 49K
20260504T12Z_MSC_GDPS_FreezingRain-Accum_Sfc_LatLon0.15_PT099H.grib2 2026-05-04 16:44 364K
20260504T12Z_MSC_GDPS_GeopotentialHeight_IsbL-0001_LatLon0.15_PT099H.grib2 2026-05-04 16:44 446K
20260504T12Z_MSC_GDPS_GeopotentialHeight_IsbL-0005_LatLon0.15_PT099H.grib2 2026-05-04 16:44 492K
20260504T12Z_MSC_GDPS_GeopotentialHeight_IsbL-0010_LatLon0.15_PT099H.grib2 2026-05-04 16:44 476K
20260504T12Z_MSC_GDPS_GeopotentialHeight_IsbL-0020_LatLon0.15_PT099H.grib2 2026-05-04 16:44 415K
20260504T12Z_MSC_GDPS_GeopotentialHeight_IsbL-0030_LatLon0.15_PT099H.grib2 2026-05-04 16:44 419K
20260504T12Z_MSC_GDPS_GeopotentialHeight_IsbL-0050_LatLon0.15_PT099H.grib2 2026-05-04 16:44 579K
20260504T12Z_MSC_GDPS_GeopotentialHeight_IsbL-0100_LatLon0.15_PT099H.grib2 2026-05-04 16:44 616K
20260504T12Z_MSC_GDPS_GeopotentialHeight_IsbL-0150_LatLon0.15_PT099H.grib2 2026-05-04 16:44 637K
20260504T12Z_MSC_GDPS_GeopotentialHeight_IsbL-0175_LatLon0.15_PT099H.grib2 2026-05-04 16:44 642K
20260504T12Z_MSC_GDPS_GeopotentialHeight_IsbL-0200_LatLon0.15_PT099H.grib2 2026-05-04 16:44 646K
20260504T12Z_MSC_GDPS_GeopotentialHeight_IsbL-0225_LatLon0.15_PT099H.grib2 2026-05-04 16:44 647K
20260504T12Z_MSC_GDPS_GeopotentialHeight_IsbL-0250_LatLon0.15_PT099H.grib2 2026-05-04 16:44 643K
20260504T12Z_MSC_GDPS_GeopotentialHeight_IsbL-0275_LatLon0.15_PT099H.grib2 2026-05-04 16:44 645K
20260504T12Z_MSC_GDPS_GeopotentialHeight_IsbL-0300_LatLon0.15_PT099H.grib2 2026-05-04 16:44 636K
20260504T12Z_MSC_GDPS_GeopotentialHeight_IsbL-0350_LatLon0.15_PT099H.grib2 2026-05-04 16:44 635K
20260504T12Z_MSC_GDPS_GeopotentialHeight_IsbL-0400_LatLon0.15_PT099H.grib2 2026-05-04 16:44 624K
20260504T12Z_MSC_GDPS_GeopotentialHeight_IsbL-0450_LatLon0.15_PT099H.grib2 2026-05-04 16:44 614K
20260504T12Z_MSC_GDPS_GeopotentialHeight_IsbL-0500_LatLon0.15_PT099H.grib2 2026-05-04 16:44 534K
20260504T12Z_MSC_GDPS_GeopotentialHeight_IsbL-0550_LatLon0.15_PT099H.grib2 2026-05-04 16:44 525K
20260504T12Z_MSC_GDPS_GeopotentialHeight_IsbL-0600_LatLon0.15_PT099H.grib2 2026-05-04 16:44 690K
20260504T12Z_MSC_GDPS_GeopotentialHeight_IsbL-0650_LatLon0.15_PT099H.grib2 2026-05-04 16:44 692K
20260504T12Z_MSC_GDPS_GeopotentialHeight_IsbL-0700_LatLon0.15_PT099H.grib2 2026-05-04 16:44 689K
20260504T12Z_MSC_GDPS_GeopotentialHeight_IsbL-0750_LatLon0.15_PT099H.grib2 2026-05-04 16:44 696K
20260504T12Z_MSC_GDPS_GeopotentialHeight_IsbL-0800_LatLon0.15_PT099H.grib2 2026-05-04 16:44 710K
20260504T12Z_MSC_GDPS_GeopotentialHeight_IsbL-0850_LatLon0.15_PT099H.grib2 2026-05-04 16:44 721K
20260504T12Z_MSC_GDPS_GeopotentialHeight_IsbL-0875_LatLon0.15_PT099H.grib2 2026-05-04 16:44 726K
20260504T12Z_MSC_GDPS_GeopotentialHeight_IsbL-0900_LatLon0.15_PT099H.grib2 2026-05-04 16:44 729K
20260504T12Z_MSC_GDPS_GeopotentialHeight_IsbL-0925_LatLon0.15_PT099H.grib2 2026-05-04 16:44 736K
20260504T12Z_MSC_GDPS_GeopotentialHeight_IsbL-0950_LatLon0.15_PT099H.grib2 2026-05-04 16:44 742K
20260504T12Z_MSC_GDPS_GeopotentialHeight_IsbL-0970_LatLon0.15_PT099H.grib2 2026-05-04 16:44 753K
20260504T12Z_MSC_GDPS_GeopotentialHeight_IsbL-0985_LatLon0.15_PT099H.grib2 2026-05-04 16:44 769K
20260504T12Z_MSC_GDPS_GeopotentialHeight_IsbL-1000_LatLon0.15_PT099H.grib2 2026-05-04 16:44 789K
20260504T12Z_MSC_GDPS_GeopotentialHeight_IsbL-1015_LatLon0.15_PT099H.grib2 2026-05-04 16:44 813K
20260504T12Z_MSC_GDPS_IcePellets-Accum1h_Sfc_LatLon0.15_PT099H.grib2 2026-05-04 16:44 10K
20260504T12Z_MSC_GDPS_IcePellets-Accum3h_Sfc_LatLon0.15_PT099H.grib2 2026-05-04 16:44 12K
20260504T12Z_MSC_GDPS_IcePellets-Accum_Sfc_LatLon0.15_PT099H.grib2 2026-05-04 16:44 105K
20260504T12Z_MSC_GDPS_KIndex_Sfc_LatLon0.15_PT099H.grib2 2026-05-04 16:44 6.5M
20260504T12Z_MSC_GDPS_LatentHeatNetFlux_Sfc_LatLon0.15_PT099H.grib2 2026-05-04 16:44 724K
20260504T12Z_MSC_GDPS_LiftedIndex-MU-VT_IsbL-0500_LatLon0.15_PT099H.grib2 2026-05-04 16:44 5.4M
20260504T12Z_MSC_GDPS_NetLongwaveRadiationFlux-Accum_Sfc_LatLon0.15_PT099H.grib2 2026-05-04 16:44 972K
20260504T12Z_MSC_GDPS_NetShortwaveRadiationFlux-Accum_Sfc_LatLon0.15_PT099H.grib2 2026-05-04 16:44 931K
20260504T12Z_MSC_GDPS_O3MixingRatio_Sfc_LatLon0.15_PT099H.grib2 2026-05-04 17:18 1.9M
20260504T12Z_MSC_GDPS_O3_EAtm_LatLon0.15_PT099H.grib2 2026-05-04 17:18 2.4M
20260504T12Z_MSC_GDPS_PlanetaryBoundaryLayerHeight_Sfc_LatLon0.15_PT099H.grib2 2026-05-04 16:44 2.5M
20260504T12Z_MSC_GDPS_Precip-Accum1h_Sfc_LatLon0.15_PT099H.grib2 2026-05-04 16:44 3.3M
20260504T12Z_MSC_GDPS_Precip-Accum3h_Sfc_LatLon0.15_PT099H.grib2 2026-05-04 16:44 3.5M
20260504T12Z_MSC_GDPS_Precip-Accum_Sfc_LatLon0.15_PT099H.grib2 2026-05-04 16:44 5.0M
20260504T12Z_MSC_GDPS_PrecipRate_Sfc_LatLon0.15_PT099H.grib2 2026-05-04 16:44 3.0M
20260504T12Z_MSC_GDPS_PrecipType-Instant_Sfc_LatLon0.15_PT099H.grib2 2026-05-04 16:44 1.6M
20260504T12Z_MSC_GDPS_Pressure_MSL_LatLon0.15_PT099H.grib2 2026-05-04 16:44 730K
20260504T12Z_MSC_GDPS_Pressure_Sfc_LatLon0.15_PT099H.grib2 2026-05-04 16:44 1.1M
20260504T12Z_MSC_GDPS_RadiativeTemp_Sfc_LatLon0.15_PT099H.grib2 2026-05-04 16:44 494K
20260504T12Z_MSC_GDPS_Rain-Accum1h_Sfc_LatLon0.15_PT099H.grib2 2026-05-04 16:44 1.7M
20260504T12Z_MSC_GDPS_Rain-Accum3h_Sfc_LatLon0.15_PT099H.grib2 2026-05-04 16:44 1.7M
20260504T12Z_MSC_GDPS_Rain-Accum_Sfc_LatLon0.15_PT099H.grib2 2026-05-04 16:44 3.9M
20260504T12Z_MSC_GDPS_RelativeHumidity_AGL-2m_LatLon0.15_PT099H.grib2 2026-05-04 16:44 1.0M
20260504T12Z_MSC_GDPS_RelativeHumidity_IsbL-0010_LatLon0.15_PT099H.grib2 2026-05-04 16:44 143K
20260504T12Z_MSC_GDPS_RelativeHumidity_IsbL-0020_LatLon0.15_PT099H.grib2 2026-05-04 16:44 168K
20260504T12Z_MSC_GDPS_RelativeHumidity_IsbL-0030_LatLon0.15_PT099H.grib2 2026-05-04 16:44 302K
20260504T12Z_MSC_GDPS_RelativeHumidity_IsbL-0050_LatLon0.15_PT099H.grib2 2026-05-04 16:44 333K
20260504T12Z_MSC_GDPS_RelativeHumidity_IsbL-0100_LatLon0.15_PT099H.grib2 2026-05-04 16:44 505K
20260504T12Z_MSC_GDPS_RelativeHumidity_IsbL-0150_LatLon0.15_PT099H.grib2 2026-05-04 16:44 679K
20260504T12Z_MSC_GDPS_RelativeHumidity_IsbL-0175_LatLon0.15_PT099H.grib2 2026-05-04 16:44 800K
20260504T12Z_MSC_GDPS_RelativeHumidity_IsbL-0200_LatLon0.15_PT099H.grib2 2026-05-04 16:44 716K
20260504T12Z_MSC_GDPS_RelativeHumidity_IsbL-0225_LatLon0.15_PT099H.grib2 2026-05-04 16:44 797K
20260504T12Z_MSC_GDPS_RelativeHumidity_IsbL-0250_LatLon0.15_PT099H.grib2 2026-05-04 16:44 868K
20260504T12Z_MSC_GDPS_RelativeHumidity_IsbL-0275_LatLon0.15_PT099H.grib2 2026-05-04 16:44 887K
20260504T12Z_MSC_GDPS_RelativeHumidity_IsbL-0300_LatLon0.15_PT099H.grib2 2026-05-04 16:44 927K
20260504T12Z_MSC_GDPS_RelativeHumidity_IsbL-0350_LatLon0.15_PT099H.grib2 2026-05-04 16:44 948K
20260504T12Z_MSC_GDPS_RelativeHumidity_IsbL-0400_LatLon0.15_PT099H.grib2 2026-05-04 16:44 970K
20260504T12Z_MSC_GDPS_RelativeHumidity_IsbL-0450_LatLon0.15_PT099H.grib2 2026-05-04 16:44 1.0M
20260504T12Z_MSC_GDPS_RelativeHumidity_IsbL-0500_LatLon0.15_PT099H.grib2 2026-05-04 16:44 1.0M
20260504T12Z_MSC_GDPS_RelativeHumidity_IsbL-0550_LatLon0.15_PT099H.grib2 2026-05-04 16:44 1.0M
20260504T12Z_MSC_GDPS_RelativeHumidity_IsbL-0600_LatLon0.15_PT099H.grib2 2026-05-04 16:44 1.0M
20260504T12Z_MSC_GDPS_RelativeHumidity_IsbL-0650_LatLon0.15_PT099H.grib2 2026-05-04 16:44 1.1M
20260504T12Z_MSC_GDPS_RelativeHumidity_IsbL-0700_LatLon0.15_PT099H.grib2 2026-05-04 16:44 1.1M
20260504T12Z_MSC_GDPS_RelativeHumidity_IsbL-0750_LatLon0.15_PT099H.grib2 2026-05-04 16:44 1.2M
20260504T12Z_MSC_GDPS_RelativeHumidity_IsbL-0800_LatLon0.15_PT099H.grib2 2026-05-04 16:44 1.3M
20260504T12Z_MSC_GDPS_RelativeHumidity_IsbL-0850_LatLon0.15_PT099H.grib2 2026-05-04 16:44 1.3M
20260504T12Z_MSC_GDPS_RelativeHumidity_IsbL-0875_LatLon0.15_PT099H.grib2 2026-05-04 16:44 1.3M
20260504T12Z_MSC_GDPS_RelativeHumidity_IsbL-0900_LatLon0.15_PT099H.grib2 2026-05-04 16:44 1.2M
20260504T12Z_MSC_GDPS_RelativeHumidity_IsbL-0925_LatLon0.15_PT099H.grib2 2026-05-04 16:44 1.2M
20260504T12Z_MSC_GDPS_RelativeHumidity_IsbL-0950_LatLon0.15_PT099H.grib2 2026-05-04 16:44 1.2M
20260504T12Z_MSC_GDPS_RelativeHumidity_IsbL-0970_LatLon0.15_PT099H.grib2 2026-05-04 16:44 1.2M
20260504T12Z_MSC_GDPS_RelativeHumidity_IsbL-0985_LatLon0.15_PT099H.grib2 2026-05-04 16:44 1.1M
20260504T12Z_MSC_GDPS_RelativeHumidity_IsbL-1000_LatLon0.15_PT099H.grib2 2026-05-04 16:44 1.1M
20260504T12Z_MSC_GDPS_RelativeHumidity_IsbL-1015_LatLon0.15_PT099H.grib2 2026-05-04 16:44 1.1M
20260504T12Z_MSC_GDPS_RelativeVorticity_IsbL-0200_LatLon0.15_PT099H.grib2 2026-05-04 16:44 1.5M
20260504T12Z_MSC_GDPS_RelativeVorticity_IsbL-0250_LatLon0.15_PT099H.grib2 2026-05-04 16:44 1.3M
20260504T12Z_MSC_GDPS_RelativeVorticity_IsbL-0500_LatLon0.15_PT099H.grib2 2026-05-04 16:44 1.2M
20260504T12Z_MSC_GDPS_RelativeVorticity_IsbL-0700_LatLon0.15_PT099H.grib2 2026-05-04 16:44 1.3M
20260504T12Z_MSC_GDPS_RelativeVorticity_IsbL-0850_LatLon0.15_PT099H.grib2 2026-05-04 16:44 1.6M
20260504T12Z_MSC_GDPS_Runoff-Accum_Sfc_LatLon0.15_PT099H.grib2 2026-05-04 16:44 129K
20260504T12Z_MSC_GDPS_SensibleHeatNetFlux_Sfc_LatLon0.15_PT099H.grib2 2026-05-04 16:44 486K
20260504T12Z_MSC_GDPS_ShowalterIndex_IsbL-0500_LatLon0.15_PT099H.grib2 2026-05-04 16:44 6.2M
20260504T12Z_MSC_GDPS_Snow-Accum1h_Sfc_LatLon0.15_PT099H.grib2 2026-05-04 16:44 1.0M
20260504T12Z_MSC_GDPS_Snow-Accum3h_Sfc_LatLon0.15_PT099H.grib2 2026-05-04 16:44 933K
20260504T12Z_MSC_GDPS_Snow-Accum_Sfc_LatLon0.15_PT099H.grib2 2026-05-04 16:44 2.0M
20260504T12Z_MSC_GDPS_SnowDensity_Sfc_LatLon0.15_PT099H.grib2 2026-05-04 16:44 259K
20260504T12Z_MSC_GDPS_SnowDepth_Sfc_LatLon0.15_PT099H.grib2 2026-05-04 16:44 1.7M
20260504T12Z_MSC_GDPS_SoilTemp_DBS-0to10cm_LatLon0.15_PT099H.grib2 2026-05-04 16:44 513K
20260504T12Z_MSC_GDPS_SoilTemp_Sfc_LatLon0.15_PT099H.grib2 2026-05-04 16:44 576K
20260504T12Z_MSC_GDPS_SoilVolumetricIceContent_Sfc_LatLon0.15_PT099H.grib2 2026-05-04 16:44 182K
20260504T12Z_MSC_GDPS_SoilVolumetricWaterContent_DBS-0to10cm_LatLon0.15_PT099H.grib2 2026-05-04 16:44 597K
20260504T12Z_MSC_GDPS_SoilVolumetricWaterContent_DBS-0to1cm_LatLon0.15_PT099H.grib2 2026-05-04 16:44 653K
20260504T12Z_MSC_GDPS_SpecificHumidity_AGL-120m_LatLon0.15_PT099H.grib2 2026-05-04 16:44 1.1M
20260504T12Z_MSC_GDPS_SpecificHumidity_AGL-2m_LatLon0.15_PT099H.grib2 2026-05-04 16:44 1.2M
20260504T12Z_MSC_GDPS_SpecificHumidity_AGL-40m_LatLon0.15_PT099H.grib2 2026-05-04 16:44 1.1M
20260504T12Z_MSC_GDPS_SpecificHumidity_AGL-80m_LatLon0.15_PT099H.grib2 2026-05-04 16:44 1.1M
20260504T12Z_MSC_GDPS_SpecificHumidity_IsbL-0001_LatLon0.15_PT099H.grib2 2026-05-04 16:44 1.3M
20260504T12Z_MSC_GDPS_SpecificHumidity_IsbL-0005_LatLon0.15_PT099H.grib2 2026-05-04 16:44 1.2M
20260504T12Z_MSC_GDPS_SpecificHumidity_IsbL-0010_LatLon0.15_PT099H.grib2 2026-05-04 16:44 1.3M
20260504T12Z_MSC_GDPS_SpecificHumidity_IsbL-0020_LatLon0.15_PT099H.grib2 2026-05-04 16:44 1.3M
20260504T12Z_MSC_GDPS_SpecificHumidity_IsbL-0030_LatLon0.15_PT099H.grib2 2026-05-04 16:44 1.3M
20260504T12Z_MSC_GDPS_SpecificHumidity_IsbL-0050_LatLon0.15_PT099H.grib2 2026-05-04 16:44 1.6M
20260504T12Z_MSC_GDPS_SpecificHumidity_IsbL-0100_LatLon0.15_PT099H.grib2 2026-05-04 16:44 1.3M
20260504T12Z_MSC_GDPS_SpecificHumidity_IsbL-0150_LatLon0.15_PT099H.grib2 2026-05-04 16:44 1.3M
20260504T12Z_MSC_GDPS_SpecificHumidity_IsbL-0175_LatLon0.15_PT099H.grib2 2026-05-04 16:44 1.3M
20260504T12Z_MSC_GDPS_SpecificHumidity_IsbL-0200_LatLon0.15_PT099H.grib2 2026-05-04 16:44 1.3M
20260504T12Z_MSC_GDPS_SpecificHumidity_IsbL-0225_LatLon0.15_PT099H.grib2 2026-05-04 16:44 1.3M
20260504T12Z_MSC_GDPS_SpecificHumidity_IsbL-0250_LatLon0.15_PT099H.grib2 2026-05-04 16:44 1.2M
20260504T12Z_MSC_GDPS_SpecificHumidity_IsbL-0275_LatLon0.15_PT099H.grib2 2026-05-04 16:44 1.3M
20260504T12Z_MSC_GDPS_SpecificHumidity_IsbL-0300_LatLon0.15_PT099H.grib2 2026-05-04 16:44 1.3M
20260504T12Z_MSC_GDPS_SpecificHumidity_IsbL-0350_LatLon0.15_PT099H.grib2 2026-05-04 16:44 1.2M
20260504T12Z_MSC_GDPS_SpecificHumidity_IsbL-0400_LatLon0.15_PT099H.grib2 2026-05-04 16:44 1.5M
20260504T12Z_MSC_GDPS_SpecificHumidity_IsbL-0450_LatLon0.15_PT099H.grib2 2026-05-04 16:44 1.3M
20260504T12Z_MSC_GDPS_SpecificHumidity_IsbL-0500_LatLon0.15_PT099H.grib2 2026-05-04 16:44 1.5M
20260504T12Z_MSC_GDPS_SpecificHumidity_IsbL-0550_LatLon0.15_PT099H.grib2 2026-05-04 16:44 1.6M
20260504T12Z_MSC_GDPS_SpecificHumidity_IsbL-0600_LatLon0.15_PT099H.grib2 2026-05-04 16:44 1.4M
20260504T12Z_MSC_GDPS_SpecificHumidity_IsbL-0650_LatLon0.15_PT099H.grib2 2026-05-04 16:44 1.5M
20260504T12Z_MSC_GDPS_SpecificHumidity_IsbL-0700_LatLon0.15_PT099H.grib2 2026-05-04 16:44 1.6M
20260504T12Z_MSC_GDPS_SpecificHumidity_IsbL-0750_LatLon0.15_PT099H.grib2 2026-05-04 16:44 1.7M
20260504T12Z_MSC_GDPS_SpecificHumidity_IsbL-0800_LatLon0.15_PT099H.grib2 2026-05-04 16:44 1.9M
20260504T12Z_MSC_GDPS_SpecificHumidity_IsbL-0850_LatLon0.15_PT099H.grib2 2026-05-04 16:44 2.0M
20260504T12Z_MSC_GDPS_SpecificHumidity_IsbL-0875_LatLon0.15_PT099H.grib2 2026-05-04 16:44 2.0M
20260504T12Z_MSC_GDPS_SpecificHumidity_IsbL-0900_LatLon0.15_PT099H.grib2 2026-05-04 16:44 1.6M
20260504T12Z_MSC_GDPS_SpecificHumidity_IsbL-0925_LatLon0.15_PT099H.grib2 2026-05-04 16:44 1.6M
20260504T12Z_MSC_GDPS_SpecificHumidity_IsbL-0950_LatLon0.15_PT099H.grib2 2026-05-04 16:44 1.6M
20260504T12Z_MSC_GDPS_SpecificHumidity_IsbL-0970_LatLon0.15_PT099H.grib2 2026-05-04 16:44 1.6M
20260504T12Z_MSC_GDPS_SpecificHumidity_IsbL-0985_LatLon0.15_PT099H.grib2 2026-05-04 16:44 1.5M
20260504T12Z_MSC_GDPS_SpecificHumidity_IsbL-1000_LatLon0.15_PT099H.grib2 2026-05-04 16:44 1.5M
20260504T12Z_MSC_GDPS_SpecificHumidity_IsbL-1015_LatLon0.15_PT099H.grib2 2026-05-04 16:44 1.5M
20260504T12Z_MSC_GDPS_SpecificHumidity_Sfc_LatLon0.15_PT099H.grib2 2026-05-04 16:44 597K
20260504T12Z_MSC_GDPS_Thickness_IsbL-0850to0700_LatLon0.15_PT099H.grib2 2026-05-04 16:44 476K
20260504T12Z_MSC_GDPS_Thickness_IsbL-1000to0500_LatLon0.15_PT099H.grib2 2026-05-04 16:44 374K
20260504T12Z_MSC_GDPS_Thickness_IsbL-1000to0850_LatLon0.15_PT099H.grib2 2026-05-04 16:44 495K
20260504T12Z_MSC_GDPS_TotalCloudCover_Sfc_LatLon0.15_PT099H.grib2 2026-05-04 16:44 821K
20260504T12Z_MSC_GDPS_TotalTotalsIndex_Sfc_LatLon0.15_PT099H.grib2 2026-05-04 16:44 6.2M
20260504T12Z_MSC_GDPS_UVIndex-ClearSky_Sfc_LatLon0.15_PT099H.grib2 2026-05-04 17:18 1.0M
20260504T12Z_MSC_GDPS_UVIndex_Sfc_LatLon0.15_PT099H.grib2 2026-05-04 17:18 1.5M
20260504T12Z_MSC_GDPS_UpwardLongwaveRadiationFlux_NTAtm_LatLon0.15_PT099H.grib2 2026-05-04 16:44 836K
20260504T12Z_MSC_GDPS_VerticalVelocity_IsbL-0200_LatLon0.15_PT099H.grib2 2026-05-04 16:44 1.2M
20260504T12Z_MSC_GDPS_VerticalVelocity_IsbL-0250_LatLon0.15_PT099H.grib2 2026-05-04 16:44 1.1M
20260504T12Z_MSC_GDPS_VerticalVelocity_IsbL-0500_LatLon0.15_PT099H.grib2 2026-05-04 16:44 1.0M
20260504T12Z_MSC_GDPS_VerticalVelocity_IsbL-0600_LatLon0.15_PT099H.grib2 2026-05-04 16:44 1.1M
20260504T12Z_MSC_GDPS_VerticalVelocity_IsbL-0700_LatLon0.15_PT099H.grib2 2026-05-04 16:44 1.1M
20260504T12Z_MSC_GDPS_VerticalVelocity_IsbL-0850_LatLon0.15_PT099H.grib2 2026-05-04 16:44 1.3M
20260504T12Z_MSC_GDPS_WindChill_Sfc_LatLon0.15_PT099H.grib2 2026-05-04 16:44 5.3M
20260504T12Z_MSC_GDPS_WindDir_AGL-10m_LatLon0.15_PT099H.grib2 2026-05-04 16:44 1.3M
20260504T12Z_MSC_GDPS_WindDir_AGL-120m_LatLon0.15_PT099H.grib2 2026-05-04 16:44 1.3M
20260504T12Z_MSC_GDPS_WindDir_AGL-40m_LatLon0.15_PT099H.grib2 2026-05-04 16:44 1.4M
20260504T12Z_MSC_GDPS_WindDir_AGL-80m_LatLon0.15_PT099H.grib2 2026-05-04 16:44 1.4M
20260504T12Z_MSC_GDPS_WindDir_IsbL-0001_LatLon0.15_PT099H.grib2 2026-05-04 16:44 655K
20260504T12Z_MSC_GDPS_WindDir_IsbL-0005_LatLon0.15_PT099H.grib2 2026-05-04 16:44 841K
20260504T12Z_MSC_GDPS_WindDir_IsbL-0010_LatLon0.15_PT099H.grib2 2026-05-04 16:44 830K
20260504T12Z_MSC_GDPS_WindDir_IsbL-0020_LatLon0.15_PT099H.grib2 2026-05-04 16:44 935K
20260504T12Z_MSC_GDPS_WindDir_IsbL-0030_LatLon0.15_PT099H.grib2 2026-05-04 16:44 939K
20260504T12Z_MSC_GDPS_WindDir_IsbL-0050_LatLon0.15_PT099H.grib2 2026-05-04 16:44 961K
20260504T12Z_MSC_GDPS_WindDir_IsbL-0100_LatLon0.15_PT099H.grib2 2026-05-04 16:44 1.0M
20260504T12Z_MSC_GDPS_WindDir_IsbL-0150_LatLon0.15_PT099H.grib2 2026-05-04 16:44 1.0M
20260504T12Z_MSC_GDPS_WindDir_IsbL-0175_LatLon0.15_PT099H.grib2 2026-05-04 16:44 1.1M
20260504T12Z_MSC_GDPS_WindDir_IsbL-0200_LatLon0.15_PT099H.grib2 2026-05-04 16:44 1.1M
20260504T12Z_MSC_GDPS_WindDir_IsbL-0225_LatLon0.15_PT099H.grib2 2026-05-04 16:44 1.1M
20260504T12Z_MSC_GDPS_WindDir_IsbL-0250_LatLon0.15_PT099H.grib2 2026-05-04 16:44 1.1M
20260504T12Z_MSC_GDPS_WindDir_IsbL-0275_LatLon0.15_PT099H.grib2 2026-05-04 16:44 1.2M
20260504T12Z_MSC_GDPS_WindDir_IsbL-0300_LatLon0.15_PT099H.grib2 2026-05-04 16:44 1.2M
20260504T12Z_MSC_GDPS_WindDir_IsbL-0350_LatLon0.15_PT099H.grib2 2026-05-04 16:44 1.2M
20260504T12Z_MSC_GDPS_WindDir_IsbL-0400_LatLon0.15_PT099H.grib2 2026-05-04 16:44 1.3M
20260504T12Z_MSC_GDPS_WindDir_IsbL-0450_LatLon0.15_PT099H.grib2 2026-05-04 16:44 1.3M
20260504T12Z_MSC_GDPS_WindDir_IsbL-0500_LatLon0.15_PT099H.grib2 2026-05-04 16:44 1.4M
20260504T12Z_MSC_GDPS_WindDir_IsbL-0550_LatLon0.15_PT099H.grib2 2026-05-04 16:44 1.4M
20260504T12Z_MSC_GDPS_WindDir_IsbL-0600_LatLon0.15_PT099H.grib2 2026-05-04 16:44 1.4M
20260504T12Z_MSC_GDPS_WindDir_IsbL-0650_LatLon0.15_PT099H.grib2 2026-05-04 16:44 1.5M
20260504T12Z_MSC_GDPS_WindDir_IsbL-0700_LatLon0.15_PT099H.grib2 2026-05-04 16:44 1.6M
20260504T12Z_MSC_GDPS_WindDir_IsbL-0750_LatLon0.15_PT099H.grib2 2026-05-04 16:44 1.7M
20260504T12Z_MSC_GDPS_WindDir_IsbL-0800_LatLon0.15_PT099H.grib2 2026-05-04 16:44 1.8M
20260504T12Z_MSC_GDPS_WindDir_IsbL-0850_LatLon0.15_PT099H.grib2 2026-05-04 16:44 1.9M
20260504T12Z_MSC_GDPS_WindDir_IsbL-0875_LatLon0.15_PT099H.grib2 2026-05-04 16:44 1.9M
20260504T12Z_MSC_GDPS_WindDir_IsbL-0900_LatLon0.15_PT099H.grib2 2026-05-04 16:44 2.0M
20260504T12Z_MSC_GDPS_WindDir_IsbL-0925_LatLon0.15_PT099H.grib2 2026-05-04 16:44 2.0M
20260504T12Z_MSC_GDPS_WindDir_IsbL-0950_LatLon0.15_PT099H.grib2 2026-05-04 16:44 2.0M
20260504T12Z_MSC_GDPS_WindDir_IsbL-0970_LatLon0.15_PT099H.grib2 2026-05-04 16:44 2.0M
20260504T12Z_MSC_GDPS_WindDir_IsbL-0985_LatLon0.15_PT099H.grib2 2026-05-04 16:44 2.0M
20260504T12Z_MSC_GDPS_WindDir_IsbL-1000_LatLon0.15_PT099H.grib2 2026-05-04 16:44 2.0M
20260504T12Z_MSC_GDPS_WindDir_IsbL-1015_LatLon0.15_PT099H.grib2 2026-05-04 16:44 2.0M
20260504T12Z_MSC_GDPS_WindGust-Max_AGL-10m_LatLon0.15_PT099H.grib2 2026-05-04 16:44 2.2M
20260504T12Z_MSC_GDPS_WindGust-Min_AGL-10m_LatLon0.15_PT099H.grib2 2026-05-04 16:44 2.2M
20260504T12Z_MSC_GDPS_WindGust_AGL-10m_LatLon0.15_PT099H.grib2 2026-05-04 16:44 2.2M
20260504T12Z_MSC_GDPS_WindSpeed_AGL-10m_LatLon0.15_PT099H.grib2 2026-05-04 16:44 1.1M
20260504T12Z_MSC_GDPS_WindSpeed_AGL-120m_LatLon0.15_PT099H.grib2 2026-05-04 16:44 1.2M
20260504T12Z_MSC_GDPS_WindSpeed_AGL-40m_LatLon0.15_PT099H.grib2 2026-05-04 16:44 1.2M
20260504T12Z_MSC_GDPS_WindSpeed_AGL-80m_LatLon0.15_PT099H.grib2 2026-05-04 16:44 1.2M
20260504T12Z_MSC_GDPS_WindSpeed_IsbL-0001_LatLon0.15_PT099H.grib2 2026-05-04 16:44 653K
20260504T12Z_MSC_GDPS_WindSpeed_IsbL-0005_LatLon0.15_PT099H.grib2 2026-05-04 16:44 701K
20260504T12Z_MSC_GDPS_WindSpeed_IsbL-0010_LatLon0.15_PT099H.grib2 2026-05-04 16:44 631K
20260504T12Z_MSC_GDPS_WindSpeed_IsbL-0020_LatLon0.15_PT099H.grib2 2026-05-04 16:44 664K
20260504T12Z_MSC_GDPS_WindSpeed_IsbL-0030_LatLon0.15_PT099H.grib2 2026-05-04 16:44 866K
20260504T12Z_MSC_GDPS_WindSpeed_IsbL-0050_LatLon0.15_PT099H.grib2 2026-05-04 16:44 900K
20260504T12Z_MSC_GDPS_WindSpeed_IsbL-0100_LatLon0.15_PT099H.grib2 2026-05-04 16:44 1.1M
20260504T12Z_MSC_GDPS_WindSpeed_IsbL-0150_LatLon0.15_PT099H.grib2 2026-05-04 16:44 1.0M
20260504T12Z_MSC_GDPS_WindSpeed_IsbL-0175_LatLon0.15_PT099H.grib2 2026-05-04 16:44 1.0M
20260504T12Z_MSC_GDPS_WindSpeed_IsbL-0200_LatLon0.15_PT099H.grib2 2026-05-04 16:44 1.1M
20260504T12Z_MSC_GDPS_WindSpeed_IsbL-0225_LatLon0.15_PT099H.grib2 2026-05-04 16:44 1.1M
20260504T12Z_MSC_GDPS_WindSpeed_IsbL-0250_LatLon0.15_PT099H.grib2 2026-05-04 16:44 1.1M
20260504T12Z_MSC_GDPS_WindSpeed_IsbL-0275_LatLon0.15_PT099H.grib2 2026-05-04 16:44 1.1M
20260504T12Z_MSC_GDPS_WindSpeed_IsbL-0300_LatLon0.15_PT099H.grib2 2026-05-04 16:44 1.1M
20260504T12Z_MSC_GDPS_WindSpeed_IsbL-0350_LatLon0.15_PT099H.grib2 2026-05-04 16:44 1.1M
20260504T12Z_MSC_GDPS_WindSpeed_IsbL-0400_LatLon0.15_PT099H.grib2 2026-05-04 16:44 1.1M
20260504T12Z_MSC_GDPS_WindSpeed_IsbL-0450_LatLon0.15_PT099H.grib2 2026-05-04 16:44 1.1M
20260504T12Z_MSC_GDPS_WindSpeed_IsbL-0500_LatLon0.15_PT099H.grib2 2026-05-04 16:44 1.1M
20260504T12Z_MSC_GDPS_WindSpeed_IsbL-0550_LatLon0.15_PT099H.grib2 2026-05-04 16:44 1.1M
20260504T12Z_MSC_GDPS_WindSpeed_IsbL-0600_LatLon0.15_PT099H.grib2 2026-05-04 16:44 1.1M
20260504T12Z_MSC_GDPS_WindSpeed_IsbL-0650_LatLon0.15_PT099H.grib2 2026-05-04 16:44 1.5M
20260504T12Z_MSC_GDPS_WindSpeed_IsbL-0700_LatLon0.15_PT099H.grib2 2026-05-04 16:44 1.5M
20260504T12Z_MSC_GDPS_WindSpeed_IsbL-0750_LatLon0.15_PT099H.grib2 2026-05-04 16:44 1.6M
20260504T12Z_MSC_GDPS_WindSpeed_IsbL-0800_LatLon0.15_PT099H.grib2 2026-05-04 16:44 1.7M
20260504T12Z_MSC_GDPS_WindSpeed_IsbL-0850_LatLon0.15_PT099H.grib2 2026-05-04 16:44 1.8M
20260504T12Z_MSC_GDPS_WindSpeed_IsbL-0875_LatLon0.15_PT099H.grib2 2026-05-04 16:44 1.8M
20260504T12Z_MSC_GDPS_WindSpeed_IsbL-0900_LatLon0.15_PT099H.grib2 2026-05-04 16:44 1.8M
20260504T12Z_MSC_GDPS_WindSpeed_IsbL-0925_LatLon0.15_PT099H.grib2 2026-05-04 16:44 1.9M
20260504T12Z_MSC_GDPS_WindSpeed_IsbL-0950_LatLon0.15_PT099H.grib2 2026-05-04 16:44 1.9M
20260504T12Z_MSC_GDPS_WindSpeed_IsbL-0970_LatLon0.15_PT099H.grib2 2026-05-04 16:44 1.9M
20260504T12Z_MSC_GDPS_WindSpeed_IsbL-0985_LatLon0.15_PT099H.grib2 2026-05-04 16:44 1.8M
20260504T12Z_MSC_GDPS_WindSpeed_IsbL-1000_LatLon0.15_PT099H.grib2 2026-05-04 16:44 1.8M
20260504T12Z_MSC_GDPS_WindSpeed_IsbL-1015_LatLon0.15_PT099H.grib2 2026-05-04 16:44 1.8M
20260504T12Z_MSC_GDPS_WindU_AGL-10m_LatLon0.15_PT099H.grib2 2026-05-04 16:44 1.3M
20260504T12Z_MSC_GDPS_WindU_AGL-120m_LatLon0.15_PT099H.grib2 2026-05-04 16:44 967K
20260504T12Z_MSC_GDPS_WindU_AGL-40m_LatLon0.15_PT099H.grib2 2026-05-04 16:44 963K
20260504T12Z_MSC_GDPS_WindU_AGL-80m_LatLon0.15_PT099H.grib2 2026-05-04 16:44 967K
20260504T12Z_MSC_GDPS_WindU_IsbL-0001_LatLon0.15_PT099H.grib2 2026-05-04 16:44 508K
20260504T12Z_MSC_GDPS_WindU_IsbL-0005_LatLon0.15_PT099H.grib2 2026-05-04 16:44 697K
20260504T12Z_MSC_GDPS_WindU_IsbL-0010_LatLon0.15_PT099H.grib2 2026-05-04 16:44 705K
20260504T12Z_MSC_GDPS_WindU_IsbL-0020_LatLon0.15_PT099H.grib2 2026-05-04 16:44 732K
20260504T12Z_MSC_GDPS_WindU_IsbL-0030_LatLon0.15_PT099H.grib2 2026-05-04 16:44 742K
20260504T12Z_MSC_GDPS_WindU_IsbL-0050_LatLon0.15_PT099H.grib2 2026-05-04 16:44 764K
20260504T12Z_MSC_GDPS_WindU_IsbL-0100_LatLon0.15_PT099H.grib2 2026-05-04 16:44 862K
20260504T12Z_MSC_GDPS_WindU_IsbL-0150_LatLon0.15_PT099H.grib2 2026-05-04 16:44 1.0M
20260504T12Z_MSC_GDPS_WindU_IsbL-0175_LatLon0.15_PT099H.grib2 2026-05-04 16:44 1.0M
20260504T12Z_MSC_GDPS_WindU_IsbL-0200_LatLon0.15_PT099H.grib2 2026-05-04 16:44 845K
20260504T12Z_MSC_GDPS_WindU_IsbL-0225_LatLon0.15_PT099H.grib2 2026-05-04 16:44 852K
20260504T12Z_MSC_GDPS_WindU_IsbL-0250_LatLon0.15_PT099H.grib2 2026-05-04 16:44 850K
20260504T12Z_MSC_GDPS_WindU_IsbL-0275_LatLon0.15_PT099H.grib2 2026-05-04 16:44 934K
20260504T12Z_MSC_GDPS_WindU_IsbL-0300_LatLon0.15_PT099H.grib2 2026-05-04 16:44 926K
20260504T12Z_MSC_GDPS_WindU_IsbL-0350_LatLon0.15_PT099H.grib2 2026-05-04 16:44 882K
20260504T12Z_MSC_GDPS_WindU_IsbL-0400_LatLon0.15_PT099H.grib2 2026-05-04 16:44 888K
20260504T12Z_MSC_GDPS_WindU_IsbL-0450_LatLon0.15_PT099H.grib2 2026-05-04 16:44 1.1M
20260504T12Z_MSC_GDPS_WindU_IsbL-0500_LatLon0.15_PT099H.grib2 2026-05-04 16:44 1.1M
20260504T12Z_MSC_GDPS_WindU_IsbL-0550_LatLon0.15_PT099H.grib2 2026-05-04 16:44 1.1M
20260504T12Z_MSC_GDPS_WindU_IsbL-0600_LatLon0.15_PT099H.grib2 2026-05-04 16:44 1.2M
20260504T12Z_MSC_GDPS_WindU_IsbL-0650_LatLon0.15_PT099H.grib2 2026-05-04 16:44 1.2M
20260504T12Z_MSC_GDPS_WindU_IsbL-0700_LatLon0.15_PT099H.grib2 2026-05-04 16:44 1.2M
20260504T12Z_MSC_GDPS_WindU_IsbL-0750_LatLon0.15_PT099H.grib2 2026-05-04 16:44 1.3M
20260504T12Z_MSC_GDPS_WindU_IsbL-0800_LatLon0.15_PT099H.grib2 2026-05-04 16:44 1.4M
20260504T12Z_MSC_GDPS_WindU_IsbL-0850_LatLon0.15_PT099H.grib2 2026-05-04 16:44 1.4M
20260504T12Z_MSC_GDPS_WindU_IsbL-0875_LatLon0.15_PT099H.grib2 2026-05-04 16:44 1.5M
20260504T12Z_MSC_GDPS_WindU_IsbL-0900_LatLon0.15_PT099H.grib2 2026-05-04 16:44 1.5M
20260504T12Z_MSC_GDPS_WindU_IsbL-0925_LatLon0.15_PT099H.grib2 2026-05-04 16:44 1.5M
20260504T12Z_MSC_GDPS_WindU_IsbL-0950_LatLon0.15_PT099H.grib2 2026-05-04 16:44 1.4M
20260504T12Z_MSC_GDPS_WindU_IsbL-0970_LatLon0.15_PT099H.grib2 2026-05-04 16:44 1.4M
20260504T12Z_MSC_GDPS_WindU_IsbL-0985_LatLon0.15_PT099H.grib2 2026-05-04 16:44 1.4M
20260504T12Z_MSC_GDPS_WindU_IsbL-1000_LatLon0.15_PT099H.grib2 2026-05-04 16:44 1.4M
20260504T12Z_MSC_GDPS_WindU_IsbL-1015_LatLon0.15_PT099H.grib2 2026-05-04 16:44 1.3M
20260504T12Z_MSC_GDPS_WindV_AGL-10m_LatLon0.15_PT099H.grib2 2026-05-04 16:44 1.6M
20260504T12Z_MSC_GDPS_WindV_AGL-120m_LatLon0.15_PT099H.grib2 2026-05-04 16:44 970K
20260504T12Z_MSC_GDPS_WindV_AGL-40m_LatLon0.15_PT099H.grib2 2026-05-04 16:44 965K
20260504T12Z_MSC_GDPS_WindV_AGL-80m_LatLon0.15_PT099H.grib2 2026-05-04 16:44 970K
20260504T12Z_MSC_GDPS_WindV_IsbL-0001_LatLon0.15_PT099H.grib2 2026-05-04 16:44 688K
20260504T12Z_MSC_GDPS_WindV_IsbL-0005_LatLon0.15_PT099H.grib2 2026-05-04 16:44 869K
20260504T12Z_MSC_GDPS_WindV_IsbL-0010_LatLon0.15_PT099H.grib2 2026-05-04 16:44 802K
20260504T12Z_MSC_GDPS_WindV_IsbL-0020_LatLon0.15_PT099H.grib2 2026-05-04 16:44 852K
20260504T12Z_MSC_GDPS_WindV_IsbL-0030_LatLon0.15_PT099H.grib2 2026-05-04 16:44 942K
20260504T12Z_MSC_GDPS_WindV_IsbL-0050_LatLon0.15_PT099H.grib2 2026-05-04 16:44 1.0M
20260504T12Z_MSC_GDPS_WindV_IsbL-0100_LatLon0.15_PT099H.grib2 2026-05-04 16:44 854K
20260504T12Z_MSC_GDPS_WindV_IsbL-0150_LatLon0.15_PT099H.grib2 2026-05-04 16:44 1.0M
20260504T12Z_MSC_GDPS_WindV_IsbL-0175_LatLon0.15_PT099H.grib2 2026-05-04 16:44 1.0M
20260504T12Z_MSC_GDPS_WindV_IsbL-0200_LatLon0.15_PT099H.grib2 2026-05-04 16:44 845K
20260504T12Z_MSC_GDPS_WindV_IsbL-0225_LatLon0.15_PT099H.grib2 2026-05-04 16:44 851K
20260504T12Z_MSC_GDPS_WindV_IsbL-0250_LatLon0.15_PT099H.grib2 2026-05-04 16:44 908K
20260504T12Z_MSC_GDPS_WindV_IsbL-0275_LatLon0.15_PT099H.grib2 2026-05-04 16:44 931K
20260504T12Z_MSC_GDPS_WindV_IsbL-0300_LatLon0.15_PT099H.grib2 2026-05-04 16:44 920K
20260504T12Z_MSC_GDPS_WindV_IsbL-0350_LatLon0.15_PT099H.grib2 2026-05-04 16:44 874K
20260504T12Z_MSC_GDPS_WindV_IsbL-0400_LatLon0.15_PT099H.grib2 2026-05-04 16:44 878K
20260504T12Z_MSC_GDPS_WindV_IsbL-0450_LatLon0.15_PT099H.grib2 2026-05-04 16:44 879K
20260504T12Z_MSC_GDPS_WindV_IsbL-0500_LatLon0.15_PT099H.grib2 2026-05-04 16:44 1.1M
20260504T12Z_MSC_GDPS_WindV_IsbL-0550_LatLon0.15_PT099H.grib2 2026-05-04 16:44 1.1M
20260504T12Z_MSC_GDPS_WindV_IsbL-0600_LatLon0.15_PT099H.grib2 2026-05-04 16:44 1.1M
20260504T12Z_MSC_GDPS_WindV_IsbL-0650_LatLon0.15_PT099H.grib2 2026-05-04 16:44 1.2M
20260504T12Z_MSC_GDPS_WindV_IsbL-0700_LatLon0.15_PT099H.grib2 2026-05-04 16:44 1.2M
20260504T12Z_MSC_GDPS_WindV_IsbL-0750_LatLon0.15_PT099H.grib2 2026-05-04 16:44 1.3M
20260504T12Z_MSC_GDPS_WindV_IsbL-0800_LatLon0.15_PT099H.grib2 2026-05-04 16:44 1.4M
20260504T12Z_MSC_GDPS_WindV_IsbL-0850_LatLon0.15_PT099H.grib2 2026-05-04 16:44 1.4M
20260504T12Z_MSC_GDPS_WindV_IsbL-0875_LatLon0.15_PT099H.grib2 2026-05-04 16:44 1.5M
20260504T12Z_MSC_GDPS_WindV_IsbL-0900_LatLon0.15_PT099H.grib2 2026-05-04 16:44 1.5M
20260504T12Z_MSC_GDPS_WindV_IsbL-0925_LatLon0.15_PT099H.grib2 2026-05-04 16:44 1.5M
20260504T12Z_MSC_GDPS_WindV_IsbL-0950_LatLon0.15_PT099H.grib2 2026-05-04 16:44 1.4M
20260504T12Z_MSC_GDPS_WindV_IsbL-0970_LatLon0.15_PT099H.grib2 2026-05-04 16:44 1.4M
20260504T12Z_MSC_GDPS_WindV_IsbL-0985_LatLon0.15_PT099H.grib2 2026-05-04 16:44 1.4M
20260504T12Z_MSC_GDPS_WindV_IsbL-1000_LatLon0.15_PT099H.grib2 2026-05-04 16:44 1.7M
20260504T12Z_MSC_GDPS_WindV_IsbL-1015_LatLon0.15_PT099H.grib2 2026-05-04 16:44 1.6M